User: anonymous   Login
Location: Bruch
(44.2051°N, 0.4120°E)
Time: 04:37:11
(UTC+00:00)
Language:

Cosmos 2181 Rocket - Orbit

View from above orbital plane
View from above orbital plane
View from above satellite
View from above satellite

Ground track
Ground track

The orbit data is extracted from the following two-line orbital elements,

1 21903U 92012B   21058.52700483 -.00000067  00000-0 -86182-4 0  9998
2 21903  82.9331 262.7014 0041631 286.5526 101.8316 13.74518372452949
Epoch (UTC): 27 February 2021 12:38:53
Eccentricity: 0.0041631
inclination: 82.9331°
perigee height: 953 km
apogee height: 1014 km
right ascension of ascending node: 262.7014°
argument of perigee: 286.5526°
revolutions per day: 13.74518372
mean anomaly at epoch: 101.8316°
orbit number at epoch: 45294

The dashed part of the orbit path shows where the satellite is in the earth's shadow,  

DLR